Weather History for Wolf Point, MT

Change the Weather History Date:

Wednesday, March 21, 2012

  Actual Average Record
Temperature  
Mean Temperature 44 °F -  
Max Temperature 60 °F 46 °F 60 °F (2012)
Min Temperature 27 °F 20 °F -18 °F (2002)
Degree Days  
Heating Degree Days 21    
Cooling Degree Days 0    
Moisture  
Dew Point 26 °F    
Average Humidity 47    
Maximum Humidity 78    
Minimum Humidity 29    
Precipitation  
Precipitation 0.00 in 0.02 in 0.08 in (2005)
Month to date precipitation 0.04 0.27  
Year to date precipitation 0.24 0.79  
Sea Level Pressure  
Sea Level Pressure 29.90 in    
Wind  
Wind Speed 10 mph (West)    
Max Wind Speed 17 mph    
Max Gust Speed 24 mph    
Visibility 10 miles    
Events      
T = Trace of Precipitation, MM = Missing Value Source: NWS Daily Summary

Daily Weather History Graph

Daily Weather History Graph

Search for Another Location

Airport:

Trip Planner

Search our weather history database for the weather conditions in past years. The results will help you decide how hot, cold, wet, or windy it might be!

Date:

Astronomy

Mar. 21, 2012 Rise Set
Actual Time 7:01 AM MDT 7:17 PM MDT
Civil Twilight 6:30 AM MDT 7:48 PM MDT
Nautical Twilight 5:54 AM MDT 8:25 PM MDT
Astronomical Twilight 5:16 AM MDT 9:03 PM MDT
Moon 6:15 AM MDT (3/21) 6:48 PM MDT (3/21)
Length of Visible Light 13h 17m
Length of Day
12h 15m
Waning Crescent, 1% of the Moon is Illuminated
Mar 21
Waning Crescent
Mar 22
New
Mar 30
First Quarter
Apr 6
Full
Apr 13
Last Quarter

Hourly Weather History & Observations

Time (MDT) Temp. Windchill Dew Point Humidity Pressure Visibility Wind Dir Wind Speed Gust Speed Precip Events Conditions
12:53 AM 46.4 °F 40.1 °F 24.8 °F 43% 29.70 in 10.0 mi SW 15.0 mph 21.9 mph N/A   Clear
1:53 AM 46.0 °F 39.9 °F 25.0 °F 44% 29.75 in 10.0 mi WSW 13.8 mph 24.2 mph N/A   Clear
2:53 AM 46.9 °F - 24.1 °F 41% 29.77 in 10.0 mi SW 17.3 mph - N/A   Clear
3:53 AM 42.1 °F 38.4 °F 25.0 °F 51% 29.80 in 10.0 mi West 5.8 mph - N/A   Clear
4:53 AM 37.0 °F 31.6 °F 24.1 °F 59% 29.85 in 10.0 mi WSW 6.9 mph - N/A   Partly Cloudy
5:53 AM 28.9 °F 25.2 °F 21.9 °F 75% 29.88 in 10.0 mi NNW 3.5 mph - N/A   Clear
6:53 AM 28.0 °F 22.8 °F 21.9 °F 78% 29.90 in 10.0 mi South 4.6 mph - N/A   Mostly Cloudy
7:53 AM 36.0 °F 31.1 °F 26.1 °F 67% 29.91 in 10.0 mi SSW 5.8 mph - N/A   Overcast
8:53 AM 44.1 °F 39.0 °F 28.0 °F 53% 29.91 in 10.0 mi West 9.2 mph - N/A   Mostly Cloudy
9:53 AM 48.9 °F - 26.1 °F 41% 29.93 in 10.0 mi West 11.5 mph - N/A   Partly Cloudy
10:53 AM 48.9 °F - 26.1 °F 41% 29.94 in 10.0 mi WSW 11.5 mph - N/A   Mostly Cloudy
11:53 AM 52.0 °F - 26.1 °F 37% 29.95 in 10.0 mi WSW 12.7 mph - N/A   Mostly Cloudy
12:53 PM 54.0 °F - 27.0 °F 35% 29.91 in 10.0 mi WSW 6.9 mph 16.1 mph N/A   Overcast
1:53 PM 57.0 °F - 27.0 °F 32% 29.91 in 10.0 mi West 12.7 mph 18.4 mph N/A   Mostly Cloudy
2:53 PM 57.9 °F - 27.0 °F 31% 29.91 in 10.0 mi WNW 10.4 mph 17.3 mph N/A   Mostly Cloudy
3:53 PM 57.9 °F - 27.0 °F 31% 29.91 in 10.0 mi Variable 3.5 mph - N/A   Clear
4:53 PM 60.1 °F - 28.0 °F 30% 29.91 in 10.0 mi NE 3.5 mph - N/A   Clear
5:53 PM 59.0 °F - 27.0 °F 29% 29.92 in 10.0 mi NNW 3.5 mph - N/A   Partly Cloudy
6:53 PM 53.1 °F - 27.0 °F 37% 29.93 in 10.0 mi North 8.1 mph - N/A   Partly Cloudy
7:53 PM 44.1 °F 39.5 °F 26.1 °F 49% 29.94 in 10.0 mi NE 8.1 mph - N/A   Partly Cloudy
8:53 PM 42.1 °F 39.2 °F 27.0 °F 55% 29.96 in 10.0 mi East 4.6 mph - N/A   Partly Cloudy
9:53 PM 45.0 °F 41.2 °F 26.1 °F 48% 29.97 in 10.0 mi NE 6.9 mph - N/A   Mostly Cloudy
10:53 PM 41.0 °F 38.0 °F 26.1 °F 55% 30.00 in 10.0 mi East 4.6 mph - N/A   Clear
11:53 PM 39.0 °F 34.8 °F 26.1 °F 60% 30.00 in 10.0 mi NNW 5.8 mph - N/A   Clear